Location: Hurstbourne Priors
(51.2000°N, 1.3667°W)
Time: 04:51:09
(UTC+00:00)

Cosmos 2237 Rocket - Pass Details

Date: 09 April 2020
Orbit: 833 x 851 km, 71.0° (Epoch: 31 May)

Event Time Altitude Azimuth Distance (km) Brightness Sun altitude
Rises 23:34:18 0° 330° (NNW) 3,408 6.4 -30.3°
Reaches altitude 10° 23:37:27 10° 347° (NNW) 2,474 5.5 -30.4°
Maximum altitude 23:41:32 20° 34° (NE) 1,873 4.4 -30.5°
Drops below altitude 10° 23:45:38 10° 80° (E) 2,476 4.6 -30.6°
Enters shadow 23:45:52 - 82° (E) 2,536 4.7 -30.6°
